Вернуться в каталог

CSTP-2.11

АктивенНаукаSSO
NORAD 61744·PAYLOAD·🇷🇺 Russia

Запущен Nov 4, 2024 с Vostochny Cosmodrome

Loading…

Ближайшие Пролёты (ближайшие 24 часа)

TLE

СвежийSource: Space-Track

Эпоха: Sep 14, 2026, 21:54 UTC

1 61744U 24199K   26257.91287520  .00038220  00000-0  52617-3 0  9992
2 61744  97.2774 134.7256 0004524 320.9763  39.1165 15.57153293148305

Отслеживайте CSTP-2.11 в реальном времени с AllMySat

Download on the App Store